TimeEST,TemperatureF,Dew PointF,Humidity,Sea Level PressureIn,VisibilityMPH,Wind Direction,Wind SpeedMPH,Gust SpeedMPH,PrecipitationIn,Events,Conditions,WindDirDegrees,DateUTC
12:53 AM,36.0,35.1,97,29.84,3.0,NNE,3.5,-,N/A,,Overcast,30,2013-02-24 05:53:00
1:53 AM,36.0,35.1,97,29.83,4.0,Variable,3.5,-,N/A,,Overcast,0,2013-02-24 06:53:00
2:53 AM,36.0,35.1,97,29.83,10.0,Variable,4.6,-,N/A,,Overcast,0,2013-02-24 07:53:00
3:00 AM,35.6,35.6,100,29.81,10.0,Variable,3.5,-,N/A,,Overcast,0,2013-02-24 08:00:00
3:33 AM,35.6,35.6,100,29.80,4.0,Calm,Calm,-,N/A,,Overcast,0,2013-02-24 08:33:00
3:53 AM,36.0,35.1,97,29.82,3.0,Calm,Calm,-,N/A,,Overcast,0,2013-02-24 08:53:00
4:03 AM,35.6,35.6,100,29.79,9.0,East,5.8,-,N/A,,Overcast,80,2013-02-24 09:03:00
4:18 AM,35.6,33.8,93,29.79,10.0,ENE,3.5,-,N/A,,Overcast,60,2013-02-24 09:18:00
4:53 AM,36.0,34.0,93,29.80,10.0,Variable,3.5,-,N/A,,Overcast,0,2013-02-24 09:53:00
5:18 AM,35.6,33.8,93,29.78,10.0,Variable,4.6,-,N/A,,Overcast,0,2013-02-24 10:18:00
5:53 AM,36.0,33.1,89,29.80,10.0,Calm,Calm,-,N/A,,Mostly Cloudy,0,2013-02-24 10:53:00
6:03 AM,35.6,33.8,93,29.78,10.0,Variable,3.5,-,N/A,,Scattered Clouds,0,2013-02-24 11:03:00
6:26 AM,35.6,33.8,93,29.78,10.0,Variable,4.6,-,N/A,,Mostly Cloudy,0,2013-02-24 11:26:00
6:50 AM,35.6,33.8,93,29.78,10.0,Calm,Calm,-,N/A,,Overcast,0,2013-02-24 11:50:00
6:53 AM,36.0,34.0,93,29.81,10.0,Calm,Calm,-,N/A,,Overcast,0,2013-02-24 11:53:00
7:53 AM,37.0,34.0,89,29.80,10.0,Calm,Calm,-,N/A,,Mostly Cloudy,0,2013-02-24 12:53:00
8:53 AM,39.0,35.1,86,29.81,10.0,NNW,5.8,-,N/A,,Overcast,330,2013-02-24 13:53:00
9:53 AM,42.1,36.0,79,29.80,10.0,NNW,4.6,-,N/A,,Overcast,340,2013-02-24 14:53:00
10:03 AM,42.8,35.6,76,29.78,10.0,NNW,5.8,-,N/A,,Mostly Cloudy,340,2013-02-24 15:03:00
10:20 AM,44.6,35.6,71,29.77,10.0,NW,10.4,-,N/A,,Partly Cloudy,320,2013-02-24 15:20:00
10:53 AM,44.1,34.0,68,29.80,10.0,NNW,8.1,-,N/A,,Mostly Cloudy,330,2013-02-24 15:53:00
11:36 AM,44.6,33.8,66,29.78,10.0,NW,10.4,-,N/A,,Mostly Cloudy,320,2013-02-24 16:36:00
11:53 AM,45.0,30.9,58,29.80,10.0,NNW,9.2,-,N/A,,Scattered Clouds,330,2013-02-24 16:53:00
12:53 PM,46.9,28.0,48,29.78,10.0,NNW,11.5,21.9,N/A,,Mostly Cloudy,330,2013-02-24 17:53:00
1:53 PM,45.0,27.0,49,29.78,10.0,WNW,16.1,25.3,N/A,,Overcast,300,2013-02-24 18:53:00
2:53 PM,43.0,26.1,51,29.79,10.0,NW,11.5,17.3,N/A,,Overcast,320,2013-02-24 19:53:00
3:53 PM,41.0,25.0,53,29.83,10.0,NW,16.1,20.7,N/A,,Overcast,310,2013-02-24 20:53:00
4:53 PM,37.9,24.1,57,29.87,10.0,NW,9.2,24.2,N/A,,Overcast,320,2013-02-24 21:53:00
5:53 PM,37.0,21.0,52,29.90,10.0,NNW,10.4,21.9,N/A,,Mostly Cloudy,340,2013-02-24 22:53:00
6:53 PM,36.0,21.0,55,29.93,10.0,NNW,13.8,20.7,N/A,,Mostly Cloudy,330,2013-02-24 23:53:00
7:53 PM,34.0,21.0,59,29.96,10.0,NW,8.1,-,N/A,,Clear,320,2013-02-25 00:53:00
8:53 PM,34.0,19.9,56,29.99,10.0,NW,6.9,-,N/A,,Clear,320,2013-02-25 01:53:00
9:53 PM,33.1,19.9,59,29.99,10.0,Variable,6.9,-,N/A,,Clear,0,2013-02-25 02:53:00
10:53 PM,33.1,19.9,59,30.00,10.0,NW,6.9,18.4,N/A,,Clear,310,2013-02-25 03:53:00
11:53 PM,33.1,19.9,59,30.00,10.0,Variable,6.9,-,N/A,,Clear,0,2013-02-25 04:53:00